"read_dt","SO2 (ppb)","flags","PMT voltage (V)","lamp voltage (V)","lamp intensity (Hz)","internal temp (C)","react chamber temp (C)","sample flow (l/min)","pres (mmHg)","SO2 bkg (ppb)","SO2 coefficient"
2014-03-24 00:00:00,5808E-2,5C000490,-0724,1375,6455,029.6,045.4,0.139,756.1,01.16,0.508
2014-03-24 00:01:00,5739E-2,5C000490,-0724,1375,6472,029.6,045.4,0.139,756.1,01.16,0.508
2014-03-24 00:02:00,5819E-2,5C000490,-0724,1376,6428,029.6,045.4,0.139,756.1,01.16,0.508
2014-03-24 00:03:00,5799E-2,5C000490,-0724,1376,6438,029.6,045.4,0.139,756.1,01.16,0.508
2014-03-24 00:04:00,5741E-2,5C000490,-0724,1376,6360,029.6,045.4,0.139,756.2,01.16,0.508
2014-03-24 00:05:00,5821E-2,5C000490,-0724,1376,6378,029.6,045.4,0.139,756.2,01.16,0.508
2014-03-24 00:06:00,5727E-2,5C000490,-0724,1376,6448,029.6,045.4,0.139,756.1,01.16,0.508
2014-03-24 00:07:00,5837E-2,5C000490,-0724,1376,6280,029.6,045.4,0.139,756.0,01.16,0.508
2014-03-24 00:08:00,5803E-2,5C000490,-0724,1376,6386,029.6,045.4,0.139,756.1,01.16,0.508
2014-03-24 00:09:00,5761E-2,5C000490,-0724,1376,6382,029.6,045.4,0.139,756.2,01.16,0.508
2014-03-24 00:10:00,5764E-2,5C000490,-0724,1376,6371,029.6,045.4,0.139,756.2,01.16,0.508
2014-03-24 00:11:00,5790E-2,5C000490,-0724,1376,6330,029.6,045.4,0.139,756.1,01.16,0.508
2014-03-24 00:12:00,5756E-2,5C000490,-0724,1376,6199,029.6,045.4,0.139,756.1,01.16,0.508
2014-03-24 00:13:00,5762E-2,5C000490,-0724,1376,6350,029.6,045.4,0.139,756.2,01.16,0.508
2014-03-24 00:14:00,5744E-2,5C000490,-0724,1376,6263,029.6,045.4,0.139,756.2,01.16,0.508
2014-03-24 00:15:00,5786E-2,5C000490,-0724,1376,6285,029.6,045.4,0.139,756.2,01.16,0.508
2014-03-24 00:16:00,5743E-2,5C000490,-0724,1376,6291,029.6,045.4,0.139,756.1,01.16,0.508
2014-03-24 00:17:00,5828E-2,5C000490,-0724,1376,6298,029.6,045.4,0.139,756.1,01.16,0.508
2014-03-24 00:18:00,5772E-2,5C000490,-0724,1376,6240,029.6,045.4,0.139,756.1,01.16,0.508
2014-03-24 00:19:00,5801E-2,5C000490,-0724,1376,6151,029.6,045.4,0.139,756.1,01.16,0.508
2014-03-24 00:20:00,5749E-2,5C000490,-0724,1376,6249,029.6,045.4,0.139,756.1,01.16,0.508
2014-03-24 00:21:00,5788E-2,5C000490,-0724,1376,6195,029.7,045.4,0.139,756.1,01.16,0.508
2014-03-24 00:22:00,5790E-2,5C000490,-0724,1376,6175,029.7,045.4,0.139,756.1,01.16,0.508
2014-03-24 00:23:00,5795E-2,5C000490,-0724,1376,6206,029.7,045.4,0.139,756.1,01.16,0.508
2014-03-24 00:24:00,5824E-2,5C000490,-0724,1376,6174,029.7,045.4,0.139,756.1,01.16,0.508
2014-03-24 00:25:00,5778E-2,5C000490,-0724,1376,6172,029.7,045.4,0.139,756.1,01.16,0.508
2014-03-24 00:26:00,5827E-2,5C000490,-0724,1376,6092,029.7,045.4,0.139,756.1,01.16,0.508
2014-03-24 00:27:00,5824E-2,5C000490,-0724,1376,6159,029.7,045.4,0.139,756.1,01.16,0.508
2014-03-24 00:28:00,5879E-2,5C000490,-0724,1376,6049,029.7,045.4,0.139,756.2,01.16,0.508
2014-03-24 00:29:00,5795E-2,5C000490,-0724,1376,6138,029.7,045.4,0.139,756.2,01.16,0.508
2014-03-24 00:30:00,5833E-2,5C000490,-0724,1376,6142,029.7,045.4,0.139,756.1,01.16,0.508
2014-03-24 00:31:00,5819E-2,5C000490,-0724,1376,6115,029.7,045.4,0.139,756.1,01.16,0.508
2014-03-24 00:32:00,5769E-2,5C000490,-0724,1376,6050,029.7,045.4,0.139,756.2,01.16,0.508
2014-03-24 00:33:00,5833E-2,5C000490,-0724,1376,6116,029.7,045.4,0.139,756.2,01.16,0.508
2014-03-24 00:34:00,5837E-2,5C000490,-0724,1376,6038,029.7,045.4,0.139,756.2,01.16,0.508
2014-03-24 00:35:00,5881E-2,5C000490,-0724,1376,6089,029.7,045.4,0.139,756.3,01.16,0.508
2014-03-24 00:36:00,5942E-2,5C000490,-0724,1376,5951,029.7,045.4,0.139,756.2,01.16,0.508
2014-03-24 00:37:00,5943E-2,5C000490,-0724,1376,6069,029.7,045.4,0.139,756.2,01.16,0.508
2014-03-24 00:38:00,5932E-2,5C000490,-0724,1376,6057,029.7,045.4,0.139,756.2,01.16,0.508
2014-03-24 00:39:00,5985E-2,5C000490,-0724,1376,5968,029.7,045.4,0.139,756.2,01.16,0.508
2014-03-24 00:40:00,5930E-2,5C000490,-0724,1376,6012,029.7,045.4,0.139,756.2,01.16,0.508
2014-03-24 00:41:00,5881E-2,5C000490,-0724,1376,6054,029.7,045.4,0.139,756.1,01.16,0.508
2014-03-24 00:42:00,5915E-2,5C000490,-0724,1376,5975,029.7,045.4,0.139,756.2,01.16,0.508
2014-03-24 00:43:00,5958E-2,5C000490,-0724,1376,5896,029.7,045.4,0.139,756.3,01.16,0.508
2014-03-24 00:44:00,5910E-2,5C000490,-0724,1376,5981,029.7,045.4,0.139,756.2,01.16,0.508
2014-03-24 00:45:00,5965E-2,5C000490,-0724,1376,5905,029.7,045.4,0.139,756.1,01.16,0.508
2014-03-24 00:46:00,5895E-2,5C000490,-0724,1376,5918,029.7,045.4,0.139,756.2,01.16,0.508
2014-03-24 00:47:00,5966E-2,5C000490,-0724,1376,5870,029.7,045.4,0.139,756.2,01.16,0.508
2014-03-24 00:48:00,6088E-2,5C000490,-0724,1376,5959,029.7,045.4,0.139,756.2,01.16,0.508
2014-03-24 00:49:00,6113E-2,5C000490,-0724,1376,5910,029.7,045.4,0.139,756.2,01.16,0.508
2014-03-24 00:50:00,6179E-2,5C000490,-0724,1376,5975,029.7,045.4,0.139,756.2,01.16,0.508
2014-03-24 00:51:00,6067E-2,5C000490,-0724,1376,5951,029.7,045.4,0.139,756.2,01.16,0.508
2014-03-24 00:52:00,6057E-2,5C000490,-0724,1376,5896,029.7,045.4,0.139,756.2,01.16,0.508
2014-03-24 00:53:00,6090E-2,5C000490,-0724,1376,5871,029.7,045.4,0.139,756.1,01.16,0.508
2014-03-24 00:54:00,6103E-2,5C000490,-0724,1376,5893,029.8,045.4,0.139,756.2,01.16,0.508
2014-03-24 00:55:00,6079E-2,5C000490,-0724,1376,5856,029.7,045.4,0.139,756.2,01.16,0.508
2014-03-24 00:56:00,6144E-2,5C000490,-0724,1376,5824,029.8,045.4,0.139,756.2,01.16,0.508
2014-03-24 00:57:00,6154E-2,5C000490,-0724,1376,5855,029.8,045.4,0.139,756.2,01.16,0.508
2014-03-24 00:58:00,6194E-2,5C000490,-0724,1376,5846,029.8,045.4,0.139,756.1,01.16,0.508
2014-03-24 00:59:00,6102E-2,5C000490,-0724,1376,5873,029.8,045.4,0.139,756.1,01.16,0.508
2014-03-24 01:00:00,6143E-2,5C000490,-0724,1376,5805,029.8,045.4,0.139,756.1,01.16,0.508
2014-03-24 01:01:00,6135E-2,5C000490,-0724,1376,5790,029.8,045.4,0.139,756.2,01.16,0.508
2014-03-24 01:02:00,6167E-2,5C000490,-0724,1376,5802,029.8,045.4,0.139,756.2,01.16,0.508
2014-03-24 01:03:00,6136E-2,5C000490,-0724,1376,5809,029.8,045.4,0.139,756.1,01.16,0.508
2014-03-24 01:04:00,6142E-2,5C000490,-0724,1376,5716,029.7,045.4,0.139,756.2,01.16,0.508
2014-03-24 01:05:00,6109E-2,5C000490,-0724,1376,5748,029.8,045.4,0.139,756.2,01.16,0.508
2014-03-24 01:06:00,6202E-2,5C000490,-0724,1376,5744,029.8,045.4,0.139,756.1,01.16,0.508
2014-03-24 01:07:00,6188E-2,5C000490,-0724,1376,5680,029.8,045.4,0.139,756.1,01.16,0.508
2014-03-24 01:08:00,6140E-2,5C000490,-0724,1376,5733,029.8,045.4,0.139,756.1,01.16,0.508
2014-03-24 01:09:00,6095E-2,5C000490,-0724,1376,5725,029.8,045.4,0.139,756.1,01.16,0.508
2014-03-24 01:10:00,6107E-2,5C000490,-0724,1376,5744,029.8,045.4,0.139,756.1,01.16,0.508
2014-03-24 01:11:00,6140E-2,5C000490,-0724,1376,5691,029.8,045.4,0.139,756.2,01.16,0.508
2014-03-24 01:12:00,6111E-2,5C000490,-0724,1376,5742,029.8,045.4,0.139,756.2,01.16,0.508
2014-03-24 01:13:00,6148E-2,5C000490,-0724,1376,5703,029.8,045.4,0.139,756.2,01.16,0.508
2014-03-24 01:14:00,6121E-2,5C000490,-0724,1376,5621,029.8,045.4,0.139,756.1,01.16,0.508
2014-03-24 01:15:00,6157E-2,5C000490,-0724,1376,5626,029.8,045.4,0.139,756.2,01.16,0.508
2014-03-24 01:16:00,6093E-2,5C000490,-0724,1376,5674,029.8,045.4,0.139,756.2,01.16,0.508
2014-03-24 01:17:00,6159E-2,5C000490,-0724,1376,5607,029.8,045.4,0.139,756.1,01.16,0.508
2014-03-24 01:18:00,6187E-2,5C000490,-0724,1376,5587,029.8,045.4,0.139,756.1,01.16,0.508
2014-03-24 01:19:00,6131E-2,5C000490,-0724,1376,5658,029.8,045.4,0.139,756.2,01.16,0.508
2014-03-24 01:20:00,6200E-2,5C000490,-0724,1376,5580,029.8,045.4,0.139,756.2,01.16,0.508
2014-03-24 01:21:00,6118E-2,5C000490,-0724,1376,5567,029.8,045.4,0.139,756.1,01.16,0.508
2014-03-24 01:22:00,6080E-2,5C000490,-0724,1376,5586,029.8,045.4,0.139,756.1,01.16,0.508
2014-03-24 01:23:00,6165E-2,5C000490,-0724,1376,5576,029.8,045.4,0.139,756.1,01.16,0.508
2014-03-24 01:24:00,6114E-2,5C000490,-0724,1376,5543,029.8,045.4,0.139,756.2,01.16,0.508
2014-03-24 01:25:00,6180E-2,5C000490,-0724,1376,5507,029.8,045.4,0.139,756.2,01.16,0.508
2014-03-24 01:26:00,6106E-2,5C000490,-0724,1376,5480,029.8,045.4,0.139,756.1,01.16,0.508
2014-03-24 01:27:00,6151E-2,5C000490,-0724,1376,5550,029.8,045.4,0.139,756.2,01.16,0.508
2014-03-24 01:28:00,6192E-2,5C000490,-0724,1376,5541,029.8,045.4,0.138,756.2,01.16,0.508
2014-03-24 01:29:00,6142E-2,5C000490,-0724,1376,5522,029.8,045.4,0.138,756.2,01.16,0.508
2014-03-24 01:30:00,6189E-2,5C000490,-0724,1376,5498,029.8,045.4,0.139,756.2,01.16,0.508
2014-03-24 01:31:00,6109E-2,5C000490,-0724,1376,5489,029.8,045.4,0.139,756.1,01.16,0.508
2014-03-24 01:32:00,6162E-2,5C000490,-0724,1376,5505,029.8,045.4,0.139,756.1,01.16,0.508
2014-03-24 01:33:00,6161E-2,5C000490,-0724,1376,5439,029.9,045.4,0.138,756.1,01.16,0.508
2014-03-24 01:34:00,6140E-2,5C000490,-0724,1376,5441,029.9,045.4,0.138,756.1,01.16,0.508
2014-03-24 01:35:00,6173E-2,5C000490,-0724,1376,5460,029.9,045.4,0.138,756.1,01.16,0.508
2014-03-24 01:36:00,6213E-2,5C000490,-0724,1376,5467,029.9,045.4,0.138,756.2,01.16,0.508
2014-03-24 01:37:00,6216E-2,5C000490,-0724,1376,5476,029.9,045.4,0.138,756.2,01.16,0.508
2014-03-24 01:38:00,6188E-2,5C000490,-0724,1376,5459,029.9,045.4,0.138,756.1,01.16,0.508
2014-03-24 01:39:00,6209E-2,5C000490,-0724,1376,5246,029.9,045.4,0.139,756.2,01.16,0.508
2014-03-24 01:40:00,6454E-2,5C000490,-0724,1376,5192,029.9,045.4,0.138,756.1,01.16,0.508
2014-03-24 01:41:00,6456E-2,5C000490,-0724,1376,5216,029.9,045.4,0.138,756.2,01.16,0.508
2014-03-24 01:42:00,6440E-2,5C000490,-0724,1376,5185,029.9,045.4,0.138,756.1,01.16,0.508
2014-03-24 01:43:00,6440E-2,5C000490,-0724,1376,5312,029.9,045.4,0.138,756.1,01.16,0.508
2014-03-24 01:44:00,6489E-2,5C000490,-0724,1376,5268,029.9,045.4,0.138,756.1,01.16,0.508
2014-03-24 01:45:00,6449E-2,5C000490,-0724,1376,5224,029.9,045.4,0.138,756.1,01.16,0.508
2014-03-24 01:46:00,6429E-2,5C000490,-0724,1376,5225,029.9,045.4,0.138,756.1,01.16,0.508
2014-03-24 01:47:00,6407E-2,5C000490,-0724,1376,5268,029.9,045.4,0.138,756.1,01.16,0.508
2014-03-24 01:48:00,6434E-2,5C000490,-0724,1376,5218,029.9,045.4,0.138,756.2,01.16,0.508
2014-03-24 01:49:00,6393E-2,5C000490,-0724,1376,5228,029.9,045.4,0.138,756.1,01.16,0.508
2014-03-24 01:50:00,6336E-2,5C000490,-0724,1376,5220,029.9,045.4,0.138,756.0,01.16,0.508
2014-03-24 01:51:00,6442E-2,5C000490,-0724,1376,5206,029.9,045.4,0.138,756.0,01.16,0.508
2014-03-24 01:52:00,6387E-2,5C000490,-0724,1376,5239,029.9,045.4,0.138,756.1,01.16,0.508
2014-03-24 01:53:00,6433E-2,5C000490,-0724,1376,5174,029.9,045.4,0.138,756.1,01.16,0.508
2014-03-24 01:54:00,6442E-2,5C000490,-0724,1376,5165,029.9,045.4,0.138,756.1,01.16,0.508
2014-03-24 01:55:00,6479E-2,5C000490,-0724,1376,5240,029.9,045.4,0.138,756.1,01.16,0.508
2014-03-24 01:56:00,6400E-2,5C000490,-0724,1376,5216,029.9,045.4,0.138,756.1,01.16,0.508
2014-03-24 01:57:00,6463E-2,5C000490,-0724,1376,5108,029.9,045.4,0.138,756.2,01.16,0.508
2014-03-24 01:58:00,6451E-2,5C000490,-0724,1376,5164,029.9,045.4,0.138,756.1,01.16,0.508
2014-03-24 01:59:00,6409E-2,5C000490,-0724,1376,5124,029.9,045.4,0.138,756.1,01.16,0.508
2014-03-24 02:00:00,6407E-2,5C000490,-0724,1376,5198,029.9,045.4,0.138,756.1,01.16,0.508
2014-03-24 02:01:00,6431E-2,5C000490,-0724,1376,5151,029.9,045.4,0.138,756.1,01.16,0.508
2014-03-24 02:02:00,6440E-2,5C000490,-0724,1376,5165,030.0,045.4,0.138,756.1,01.16,0.508
2014-03-24 02:03:00,6464E-2,5C000490,-0724,1376,5033,029.9,045.4,0.138,756.1,01.16,0.508
2014-03-24 02:04:00,6400E-2,5C000490,-0724,1376,5138,030.0,045.4,0.138,756.1,01.16,0.508
2014-03-24 02:05:00,6509E-2,5C000490,-0724,1376,5153,030.0,045.4,0.138,756.1,01.16,0.508
2014-03-24 02:06:00,6481E-2,5C000490,-0724,1376,5114,030.0,045.4,0.138,756.0,01.16,0.508
2014-03-24 02:07:00,6429E-2,5C000490,-0724,1376,5155,030.0,045.4,0.138,756.1,01.16,0.508
2014-03-24 02:08:00,6542E-2,5C000490,-0724,1376,5184,030.0,045.4,0.138,756.0,01.16,0.508
2014-03-24 02:09:00,6393E-2,5C000490,-0724,1376,5157,030.0,045.4,0.138,756.0,01.16,0.508
2014-03-24 02:10:00,6499E-2,5C000490,-0724,1376,5100,030.0,045.4,0.138,756.0,01.16,0.508
2014-03-24 02:11:00,6450E-2,5C000490,-0724,1376,5122,030.0,045.4,0.138,756.1,01.16,0.508
2014-03-24 02:12:00,6524E-2,5C000490,-0724,1376,5024,030.0,045.4,0.138,756.0,01.16,0.508
2014-03-24 02:13:00,6447E-2,5C000490,-0724,1376,5087,030.0,045.4,0.138,756.0,01.16,0.508
2014-03-24 02:14:00,6486E-2,5C000490,-0724,1376,5062,030.0,045.4,0.138,756.0,01.16,0.508
2014-03-24 02:15:00,6457E-2,5C000490,-0724,1376,5100,030.0,045.4,0.138,756.0,01.16,0.508
2014-03-24 02:16:00,6484E-2,5C000490,-0724,1376,5122,030.0,045.4,0.138,755.9,01.16,0.508
2014-03-24 02:17:00,6514E-2,5C000490,-0724,1376,5036,030.0,045.4,0.138,756.0,01.16,0.508
2014-03-24 02:18:00,6441E-2,5C000490,-0724,1376,5048,030.0,045.4,0.138,756.0,01.16,0.508
2014-03-24 02:19:00,6456E-2,5C000490,-0724,1376,5062,030.0,045.4,0.138,755.9,01.16,0.508
2014-03-24 02:20:00,6484E-2,5C000490,-0724,1376,5034,030.0,045.4,0.138,755.9,01.16,0.508
2014-03-24 02:21:00,6477E-2,5C000490,-0724,1376,5036,030.0,045.4,0.138,755.9,01.16,0.508
2014-03-24 02:22:00,6484E-2,5C000490,-0724,1376,4996,030.0,045.4,0.138,755.8,01.16,0.508
2014-03-24 02:23:00,6496E-2,5C000490,-0724,1376,5070,030.0,045.4,0.138,755.9,01.16,0.508
2014-03-24 02:24:00,6464E-2,5C000490,-0724,1376,5036,030.1,045.4,0.138,755.8,01.16,0.508
2014-03-24 02:25:00,6599E-2,5C000490,-0724,1376,5011,030.1,045.4,0.138,755.9,01.16,0.508
2014-03-24 02:26:00,6620E-2,5C000490,-0724,1376,5012,030.1,045.4,0.138,755.9,01.16,0.508
2014-03-24 02:27:00,6651E-2,5C000490,-0724,1376,5023,030.1,045.4,0.138,755.8,01.16,0.508
2014-03-24 02:28:00,6614E-2,5C000490,-0724,1376,4988,030.0,045.4,0.138,755.8,01.16,0.508
2014-03-24 02:29:00,6620E-2,5C000490,-0724,1376,4956,030.1,045.4,0.138,755.9,01.16,0.508
2014-03-24 02:30:00,6592E-2,5C000490,-0724,1376,4906,030.1,045.4,0.138,755.9,01.16,0.508
2014-03-24 02:31:00,6631E-2,5C000490,-0724,1376,4953,030.1,045.4,0.138,755.8,01.16,0.508
2014-03-24 02:32:00,6543E-2,5C000490,-0724,1376,4971,030.1,045.4,0.138,755.8,01.16,0.508
2014-03-24 02:33:00,6524E-2,5C000490,-0724,1376,4951,030.1,045.4,0.138,755.9,01.16,0.508
2014-03-24 02:34:00,6605E-2,5C000490,-0724,1376,4950,030.1,045.4,0.138,755.8,01.16,0.508
2014-03-24 02:35:00,6629E-2,5C000490,-0724,1376,4970,030.1,045.4,0.138,755.9,01.16,0.508
2014-03-24 02:36:00,6585E-2,5C000490,-0724,1376,4931,030.1,045.4,0.138,755.9,01.16,0.508
2014-03-24 02:37:00,6602E-2,5C000490,-0724,1376,4908,030.1,045.4,0.138,755.8,01.16,0.508
2014-03-24 02:38:00,6560E-2,5C000490,-0724,1376,4888,030.1,045.4,0.138,755.8,01.16,0.508
2014-03-24 02:39:00,6592E-2,5C000490,-0724,1376,4940,030.1,045.4,0.137,755.8,01.16,0.508
2014-03-24 02:40:00,6598E-2,5C000490,-0724,1376,4917,030.1,045.4,0.137,755.8,01.16,0.508
2014-03-24 02:41:00,6568E-2,5C000490,-0724,1376,4934,030.1,045.4,0.137,755.8,01.16,0.508
2014-03-24 02:42:00,6621E-2,5C000490,-0724,1376,4889,030.2,045.4,0.137,755.8,01.16,0.508
2014-03-24 02:43:00,6637E-2,5C000490,-0724,1376,4914,030.2,045.4,0.137,755.8,01.16,0.508
2014-03-24 02:44:00,6550E-2,5C000490,-0724,1376,4861,030.2,045.4,0.137,755.8,01.16,0.508
2014-03-24 02:45:00,6578E-2,5C000490,-0724,1376,4925,030.2,045.4,0.137,755.8,01.16,0.508
2014-03-24 02:46:00,6517E-2,5C000490,-0724,1376,4916,030.2,045.4,0.137,755.8,01.16,0.508
2014-03-24 02:47:00,6643E-2,5C000490,-0724,1376,4876,030.2,045.4,0.137,755.8,01.16,0.508
2014-03-24 02:48:00,6619E-2,5C000490,-0724,1376,4916,030.2,045.4,0.137,755.8,01.16,0.508
2014-03-24 02:49:00,6620E-2,5C000490,-0724,1376,4815,030.2,045.4,0.137,755.9,01.16,0.508
2014-03-24 02:50:00,6643E-2,5C000490,-0724,1376,4847,030.2,045.4,0.137,755.9,01.16,0.508
2014-03-24 02:51:00,6637E-2,5C000490,-0724,1376,4852,030.2,045.4,0.137,755.8,01.16,0.508
2014-03-24 02:52:00,6587E-2,5C000490,-0724,1376,4874,030.2,045.4,0.137,755.8,01.16,0.508
2014-03-24 02:53:00,6641E-2,5C000490,-0724,1376,4829,030.2,045.4,0.137,755.9,01.16,0.508
2014-03-24 02:54:00,6608E-2,5C000490,-0724,1376,4828,030.2,045.4,0.137,755.8,01.16,0.508
2014-03-24 02:55:00,6633E-2,5C000490,-0724,1376,4827,030.2,045.4,0.137,755.8,01.16,0.508
2014-03-24 02:56:00,6620E-2,5C000490,-0724,1376,4865,030.2,045.4,0.137,755.8,01.16,0.508
2014-03-24 02:57:00,6626E-2,5C000490,-0724,1376,4820,030.2,045.4,0.137,755.8,01.16,0.508
2014-03-24 02:58:00,6621E-2,5C000490,-0724,1376,4781,030.2,045.4,0.137,755.8,01.16,0.508
2014-03-24 02:59:00,6631E-2,5C000490,-0724,1376,4825,030.2,045.4,0.137,755.8,01.16,0.508
2014-03-24 03:00:00,6673E-2,5C000490,-0724,1376,4813,030.2,045.4,0.137,755.7,01.16,0.508
2014-03-24 03:01:00,6601E-2,5C000490,-0724,1376,4782,030.3,045.4,0.137,755.8,01.16,0.508
2014-03-24 03:02:00,6704E-2,5C000490,-0724,1376,4817,030.3,045.4,0.137,755.8,01.16,0.508
2014-03-24 03:03:00,6607E-2,5C000490,-0724,1376,4753,030.2,045.4,0.137,755.8,01.16,0.508
2014-03-24 03:04:00,6625E-2,5C000490,-0724,1376,4775,030.3,045.4,0.137,755.8,01.16,0.508
2014-03-24 03:05:00,6608E-2,5C000490,-0724,1376,4788,030.2,045.4,0.137,755.8,01.16,0.508
2014-03-24 03:06:00,6670E-2,5C000490,-0724,1376,4782,030.3,045.4,0.137,755.8,01.16,0.508
2014-03-24 03:07:00,6703E-2,5C000490,-0724,1376,4811,030.3,045.4,0.137,755.7,01.16,0.508
2014-03-24 03:08:00,6644E-2,5C000490,-0724,1376,4779,030.3,045.4,0.137,755.8,01.16,0.508
2014-03-24 03:09:00,6634E-2,5C000490,-0724,1376,4845,030.3,045.4,0.137,755.8,01.16,0.508
2014-03-24 03:10:00,6678E-2,5C000490,-0724,1376,4769,030.3,045.4,0.137,755.7,01.16,0.508
2014-03-24 03:11:00,6591E-2,5C000490,-0724,1376,4705,030.3,045.4,0.137,755.8,01.16,0.508
2014-03-24 03:12:00,6601E-2,5C000490,-0724,1376,4743,030.3,045.4,0.137,755.7,01.16,0.508
2014-03-24 03:13:00,6686E-2,5C000490,-0724,1376,4780,030.3,045.4,0.137,755.8,01.16,0.508
2014-03-24 03:14:00,6652E-2,5C000490,-0724,1376,4719,030.3,045.4,0.137,755.8,01.16,0.508
2014-03-24 03:15:00,6642E-2,5C000490,-0724,1376,4749,030.3,045.4,0.137,755.7,01.16,0.508
2014-03-24 03:16:00,6583E-2,5C000490,-0724,1376,4761,030.3,045.4,0.137,755.7,01.16,0.508
2014-03-24 03:17:00,6620E-2,5C000490,-0724,1376,4729,030.3,045.4,0.137,755.8,01.16,0.508
2014-03-24 03:18:00,6628E-2,5C000490,-0724,1376,4747,030.3,045.4,0.137,755.7,01.16,0.508
2014-03-24 03:19:00,6672E-2,5C000490,-0724,1376,4699,030.4,045.4,0.137,755.7,01.16,0.508
2014-03-24 03:20:00,6640E-2,5C000490,-0724,1376,4710,030.4,045.4,0.137,755.7,01.16,0.508
2014-03-24 03:21:00,6655E-2,5C000490,-0724,1376,4678,030.4,045.4,0.137,755.7,01.16,0.508
2014-03-24 03:22:00,6675E-2,5C000490,-0724,1376,4688,030.3,045.4,0.137,755.7,01.16,0.508
2014-03-24 03:23:00,6631E-2,5C000490,-0724,1376,4747,030.4,045.4,0.137,755.7,01.16,0.508
2014-03-24 03:24:00,6671E-2,5C000490,-0724,1376,4594,030.4,045.4,0.137,755.7,01.16,0.508
2014-03-24 03:25:00,6655E-2,5C000490,-0724,1376,4750,030.4,045.4,0.136,755.7,01.16,0.508
2014-03-24 03:26:00,6671E-2,5C000490,-0724,1376,4692,030.4,045.4,0.137,755.8,01.16,0.508
2014-03-24 03:27:00,6731E-2,5C000490,-0724,1376,4720,030.4,045.4,0.137,755.8,01.16,0.508
2014-03-24 03:28:00,6694E-2,5C000490,-0724,1376,4909,030.4,045.4,0.137,755.7,01.16,0.508
2014-03-24 03:29:00,6652E-2,5C000490,-0724,1376,4895,030.4,045.4,0.136,755.7,01.16,0.508
2014-03-24 03:30:00,6703E-2,5C000490,-0724,1376,4915,030.4,045.4,0.137,755.6,01.16,0.508
2014-03-24 03:31:00,6651E-2,5C000490,-0724,1376,4854,030.4,045.4,0.136,755.6,01.16,0.508
2014-03-24 03:32:00,6611E-2,5C000490,-0724,1376,4903,030.4,045.4,0.136,755.7,01.16,0.508
2014-03-24 03:33:00,6680E-2,5C000490,-0724,1376,4820,030.4,045.4,0.136,755.7,01.16,0.508
2014-03-24 03:34:00,6711E-2,5C000490,-0724,1376,4886,030.5,045.4,0.136,755.7,01.16,0.508
2014-03-24 03:35:00,6653E-2,5C000490,-0724,1376,4911,030.4,045.4,0.136,755.7,01.16,0.508
2014-03-24 03:36:00,6550E-2,5C000490,-0724,1376,4920,030.5,045.4,0.136,755.7,01.16,0.508
2014-03-24 03:37:00,6630E-2,5C000490,-0724,1376,4896,030.5,045.4,0.136,755.7,01.16,0.508
2014-03-24 03:38:00,6655E-2,5C000490,-0724,1376,4881,030.5,045.4,0.136,755.7,01.16,0.508
2014-03-24 03:39:00,6607E-2,5C000490,-0724,1376,4866,030.5,045.4,0.136,755.7,01.16,0.508
2014-03-24 03:40:00,6636E-2,5C000490,-0724,1376,4856,030.5,045.4,0.136,755.7,01.16,0.508
2014-03-24 03:41:00,6599E-2,5C000490,-0724,1376,4888,030.5,045.4,0.136,755.7,01.16,0.508
2014-03-24 03:42:00,6635E-2,5C000490,-0724,1376,4818,030.5,045.4,0.136,755.7,01.16,0.508
2014-03-24 03:43:00,6598E-2,5C000490,-0724,1376,4852,030.5,045.4,0.136,755.7,01.16,0.508
2014-03-24 03:44:00,6669E-2,5C000490,-0724,1376,4847,030.5,045.4,0.136,755.7,01.16,0.508
2014-03-24 03:45:00,6651E-2,5C000490,-0724,1376,4852,030.5,045.4,0.136,755.7,01.16,0.508
2014-03-24 03:46:00,6640E-2,5C000490,-0724,1376,4854,030.5,045.4,0.136,755.7,01.16,0.508
2014-03-24 03:47:00,6659E-2,5C000490,-0724,1376,4814,030.5,045.4,0.136,755.7,01.16,0.508
2014-03-24 03:48:00,6630E-2,5C000490,-0724,1376,4808,030.5,045.4,0.136,755.7,01.16,0.508
2014-03-24 03:49:00,6663E-2,5C000490,-0724,1376,4805,030.5,045.4,0.136,755.8,01.16,0.508
2014-03-24 03:50:00,6617E-2,5C000490,-0724,1376,4745,030.5,045.4,0.136,755.8,01.16,0.508
2014-03-24 03:51:00,6621E-2,5C000490,-0724,1376,4816,030.6,045.4,0.136,755.7,01.16,0.508
2014-03-24 03:52:00,6593E-2,5C000490,-0724,1376,4702,030.5,045.4,0.136,755.7,01.16,0.508
2014-03-24 03:53:00,6652E-2,5C000490,-0724,1376,4778,030.5,045.4,0.136,755.7,01.16,0.508
2014-03-24 03:54:00,6656E-2,5C000490,-0724,1376,4819,030.6,045.4,0.136,755.8,01.16,0.508
2014-03-24 03:55:00,6628E-2,5C000490,-0724,1376,4808,030.6,045.4,0.136,755.8,01.16,0.508
2014-03-24 03:56:00,6673E-2,5C000490,-0724,1376,4766,030.6,045.4,0.136,755.8,01.16,0.508
2014-03-24 03:57:00,6679E-2,5C000490,-0724,1376,4762,030.6,045.4,0.136,755.8,01.16,0.508
2014-03-24 03:58:00,6665E-2,5C000490,-0724,1376,4805,030.6,045.4,0.136,755.9,01.16,0.508
2014-03-24 03:59:00,6662E-2,5C000490,-0724,1376,4718,030.6,045.4,0.136,755.7,01.16,0.508
2014-03-24 04:00:00,6661E-2,5C000490,-0724,1376,4762,030.6,045.4,0.136,755.8,01.16,0.508
2014-03-24 04:01:00,6608E-2,5C000490,-0724,1376,4735,030.6,045.4,0.136,755.8,01.16,0.508
2014-03-24 04:02:00,5970E-2,5C000490,-0724,1376,4780,030.6,045.4,0.136,755.8,01.16,0.508
2014-03-24 04:03:00,5996E-2,5C000490,-0724,1376,4802,030.6,045.4,0.136,755.8,01.16,0.508
2014-03-24 04:04:00,5985E-2,5C000490,-0724,1376,4757,030.6,045.4,0.136,755.8,01.16,0.508
2014-03-24 04:05:00,5947E-2,5C000490,-0724,1376,4800,030.6,045.4,0.136,755.8,01.16,0.508
2014-03-24 04:06:00,5941E-2,5C000490,-0724,1376,4755,030.6,045.4,0.136,755.8,01.16,0.508
2014-03-24 04:07:00,5925E-2,5C000490,-0724,1376,4767,030.7,045.4,0.135,755.8,01.16,0.508
2014-03-24 04:08:00,5981E-2,5C000490,-0724,1376,4742,030.6,045.4,0.136,755.8,01.16,0.508
2014-03-24 04:09:00,5976E-2,5C000490,-0724,1376,4732,030.6,045.4,0.136,755.8,01.16,0.508
2014-03-24 04:10:00,5919E-2,5C000490,-0724,1376,4731,030.6,045.4,0.135,755.5,01.16,0.508
2014-03-24 04:11:00,6024E-2,5C000490,-0724,1376,4732,030.6,045.4,0.135,755.2,01.16,0.508
2014-03-24 04:12:00,6036E-2,5C000490,-0724,1376,4724,030.6,045.4,0.135,755.0,01.17,0.508
2014-03-24 04:13:00,5950E-2,5C000490,-0724,1376,4570,030.7,045.4,0.135,755.1,01.16,0.508
2014-03-24 04:14:00,5989E-2,5C000490,-0724,1376,4688,030.7,045.4,0.135,754.9,01.17,0.508
2014-03-24 04:15:00,5981E-2,5C000490,-0724,1376,4714,030.7,045.4,0.135,754.9,01.17,0.508
2014-03-24 04:16:00,5994E-2,5C000490,-0724,1376,4681,030.7,045.4,0.135,755.1,01.16,0.508
2014-03-24 04:17:00,5941E-2,5C000490,-0724,1376,4675,030.7,045.4,0.135,755.2,01.16,0.508
2014-03-24 04:18:00,5966E-2,5C000490,-0724,1376,4710,030.7,045.4,0.135,755.2,01.16,0.508
2014-03-24 04:19:00,5950E-2,5C000490,-0724,1376,4659,030.7,045.4,0.135,755.3,01.16,0.508
2014-03-24 04:20:00,5958E-2,5C000490,-0724,1376,4688,030.7,045.4,0.135,755.3,01.16,0.508
2014-03-24 04:21:00,5954E-2,5C000490,-0724,1376,4672,030.7,045.4,0.135,755.4,01.16,0.508
2014-03-24 04:22:00,5947E-2,5C000490,-0724,1376,4684,030.7,045.4,0.135,755.5,01.16,0.508
2014-03-24 04:23:00,5982E-2,5C000490,-0724,1376,4665,030.7,045.4,0.135,755.5,01.16,0.508